Vorticity
14 8 12 9 20 10 31 25 18 21 33 18 -11 41 17 10 20 20 8 6 4 6 11 4 8 17 7 14 7 14 17 20 17 18 16 14 12 18 22 19 15 17 23 15
13 13 10 11 11 22 7 27 25 24 19 5 23 27 47 6 13 7 9 11 6 10 1 18 6 14 11 17 12 18 11 7 5 8 6 5 6 7 4 -0 -6 -3 8 17
19 13 8 14 16 25 18 19 24 19 16 6 13 17 20 24 2 5 9 5 4 6 -6 4 5 2 13 7 19 13 8 6 8 12 12 14 10 11 13 13 15 17 16 7
19 13 12 9 15 14 9 17 22 21 17 15 11 7 15 22 14 3 11 9 9 8 13 11 10 21 10 12 16 12 5 9 10 8 8 13 9 8 8 6 7 7 7 9
11 14 9 16 12 2 7 4 12 16 20 23 26 18 13 10 15 20 12 8 12 5 2 16 21 20 19 15 13 9 6 8 7 8 5 3 6 6 8 7 10 11 11 12
9 6 11 14 9 13 11 7 8 9 11 13 16 19 19 18 16 11 11 8 7 5 6 17 11 17 16 19 17 8 7 6 6 -2 5 9 10 6 5 8 7 7 6 6
11 8 3 6 4 8 12 7 10 8 9 8 9 15 15 18 26 21 16 14 11 14 10 14 11 1 13 6 8 9 8 6 6 2 -3 1 3 1 1 5 8 8 3 3
17 12 7 9 9 6 5 6 6 6 7 8 8 7 8 9 11 15 18 22 21 19 16 11 15 7 8 11 8 3 6 6 6 4 5 3 2 4 -1 -3 -1 1 7 11
13 6 12 11 11 10 8 8 8 7 7 6 6 6 6 10 9 10 9 10 13 13 16 16 17 20 12 12 9 9 9 7 6 6 4 5 4 3 7 6 6 1 3 9
9 5 6 8 10 12 14 13 12 11 8 8 9 8 6 5 5 6 8 11 10 11 10 11 12 12 13 17 16 13 9 9 8 8 8 8 7 6 5 6 0 4 5 4
5 5 3 4 4 5 5 6 6 12 14 12 10 9 9 9 8 6 6 5 5 6 8 12 6 9 14 11 11 16 14 13 14 12 11 9 10 10 9 11 10 12 13 14
9 7 6 6 4 5 3 3 4 4 4 7 8 11 12 12 10 10 9 8 7 6 6 6 6 7 7 9 7 10 11 9 10 12 13 14 10 12 12 12 11 9 10 7
9 8 9 8 8 9 9 9 6 6 6 4 4 5 5 4 9 12 11 11 10 10 9 8 7 7 8 8 7 9 11 12 10 9 10 11 11 10 9 14 12 16 15 16
25 27 27 27 26 22 18 13 9 8 10 9 7 6 5 4 4 4 4 6 10 12 12 11 10 10 9 10 11 10 10 11 14 14 14 13 14 15 15 12 12 12 11 11
12 12 13 13 12 11 11 13 17 23 23 18 11 8 10 10 8 6 5 4 5 5 5 6 10 13 13 12 11 11 11 11 12 13 13 13 14 13 12 11 9 7 8 7
11 13 14 16 17 18 17 17 17 17 14 11 14 20 21 14 8 7 8 8 5 4 4 5 5 5 5 6 9 12 13 11 11 11 12 12 10 11 10 8 7 6 4 4
16 17 19 20 21 21 22 22 22 20 20 19 19 20 17 13 15 20 19 12 7 7 8 6 4 4 4 5 6 6 6 7 10 14 15 14 14 13 11 10 9 8 7 6
14 16 18 18 19 19 18 18 18 19 20 20 20 21 21 20 20 22 19 15 18 21 18 11 7 8 6 5 4 4 5 5 5 5 5 8 11 15 16 15 13 12 11 10
15 19 21 22 19 19 20 22 22 22 20 18 18 17 18 19 21 21 20 21 23 24 23 17 18 23 20 13 9 7 5 4 4 4 4 4 6 6 6 8 11 13 14 14
16 22 23 19 20 23 25 25 25 25 24 23 23 21 20 18 17 17 19 21 21 20 21 23 25 24 19 20 22 23 16 11 9 9 8 6 4 4 5 6 5 6 6 7
16 23 21 19 25 24 22 22 22 24 25 26 26 25 25 24 23 20 17 17 18 20 22 21 20 20 20 21 24 24 25 28 27 21 15 12 10 8 7 7 7 6 7 7
17 23 20 22 26 24 22 21 22 22 22 25 27 28 28 24 22 23 21 18 16 18 20 18 19 19 17 20 21 22 21 21 20 21 23 22 17 15 13 11 10 11 10 10
17 22 22 26 27 24 22 22 22 23 24 22 24 27 28 29 28 26 22 21 19 20 18 18 19 18 19 18 17 17 18 21 23 23 21 21 21 21 22 20 19 17 15 13
15 22 24 25 27 24 22 19 19 24 24 25 24 23 25 23 25 23 20 18 18 19 20 19 18 18 18 18 19 21 21 18 17 20 22 20 18 18 20 22 23 22 22 21
12 16 23 23 27 26 23 23 20 20 21 22 24 23 22 21 21 22 21 20 19 18 20 22 21 21 20 19 18 21 23 23 18 14 17 22 23 21 17 17 19 19 19 19
12 10 16 20 21 28 28 25 23 19 17 18 20 21 22 23 24 23 23 23 23 22 19 18 18 18 19 20 20 21 21 22 22 21 17 16 20 25 24 20 16 17 19 19
14 11 10 14 19 21 24 28 27 24 22 21 21 19 19 20 20 20 20 19 20 21 23 24 24 23 22 22 21 21 22 23 23 23 22 19 19 21 27 22 15 14 16 17
Height
5347 5344 5340 5337 5335 5334 5333 5333 5336 5340 5345 5350 5354 5354 5360 5366 5372 5378 5382 5389 5393 5398 5403 5409 5413 5418 5423 5428 5434 5440 5447 5453 5459 5465 5471 5477 5480 5485 5491 5497 5502 5507 5513 5520
5346 5343 5340 5337 5333 5332 5332 5331 5333 5335 5339 5343 5346 5347 5352 5357 5364 5370 5376 5382 5386 5390 5395 5402 5406 5411 5416 5421 5427 5433 5439 5444 5450 5456 5462 5467 5472 5476 5481 5488 5492 5497 5502 5508
5346 5343 5340 5339 5335 5332 5331 5330 5331 5333 5335 5338 5341 5343 5347 5351 5356 5363 5369 5373 5379 5384 5388 5393 5397 5402 5407 5413 5418 5424 5430 5436 5442 5447 5452 5457 5463 5466 5470 5476 5481 5485 5491 5496
5347 5344 5342 5340 5337 5334 5332 5331 5331 5331 5332 5333 5337 5340 5344 5347 5349 5355 5361 5366 5371 5376 5380 5384 5387 5393 5398 5403 5409 5416 5422 5427 5433 5439 5443 5449 5454 5458 5461 5466 5471 5475 5479 5485
5349 5345 5344 5341 5339 5338 5335 5335 5333 5331 5331 5331 5332 5335 5337 5340 5344 5349 5354 5359 5362 5367 5372 5376 5379 5383 5389 5394 5400 5406 5411 5417 5424 5430 5434 5440 5444 5449 5452 5456 5461 5465 5468 5473
5351 5349 5346 5344 5341 5340 5338 5337 5335 5333 5332 5331 5331 5332 5333 5335 5339 5342 5346 5350 5354 5358 5363 5366 5371 5376 5380 5385 5391 5396 5401 5407 5413 5419 5425 5430 5434 5438 5442 5446 5449 5454 5458 5463
5352 5350 5347 5345 5343 5341 5340 5341 5336 5335 5334 5332 5332 5332 5332 5332 5334 5336 5339 5342 5345 5350 5354 5358 5362 5367 5372 5377 5382 5388 5393 5397 5403 5408 5412 5417 5422 5427 5431 5435 5439 5444 5448 5451
5353 5350 5348 5345 5343 5341 5339 5337 5336 5334 5333 5332 5331 5331 5330 5331 5332 5332 5333 5335 5338 5341 5345 5348 5352 5356 5362 5368 5372 5377 5382 5387 5392 5396 5401 5405 5410 5414 5418 5423 5427 5431 5434 5438
5352 5350 5347 5343 5341 5338 5336 5334 5333 5332 5331 5330 5328 5328 5327 5327 5328 5329 5330 5331 5332 5334 5337 5339 5343 5346 5350 5355 5360 5364 5369 5373 5378 5383 5388 5393 5397 5401 5405 5409 5413 5416 5420 5423
5353 5349 5345 5342 5339 5335 5333 5330 5328 5327 5326 5325 5324 5323 5322 5322 5322 5323 5324 5325 5326 5327 5328 5331 5333 5335 5339 5344 5347 5351 5356 5360 5364 5368 5373 5378 5383 5386 5390 5394 5398 5401 5404 5407
5351 5348 5344 5338 5335 5333 5329 5326 5323 5320 5319 5317 5316 5315 5316 5315 5315 5316 5316 5318 5319 5320 5321 5321 5324 5326 5327 5331 5335 5338 5343 5346 5350 5354 5358 5362 5366 5370 5374 5377 5381 5383 5386 5389
5344 5341 5336 5332 5328 5325 5322 5319 5316 5314 5312 5308 5308 5307 5306 5305 5305 5305 5307 5308 5310 5312 5313 5313 5314 5317 5319 5321 5324 5328 5330 5333 5336 5340 5344 5347 5351 5355 5358 5360 5363 5366 5369 5372
5336 5331 5326 5321 5316 5312 5310 5307 5304 5302 5300 5300 5297 5296 5296 5295 5294 5293 5293 5294 5297 5299 5300 5301 5302 5304 5307 5311 5314 5316 5318 5319 5322 5326 5329 5332 5336 5339 5342 5345 5347 5349 5352 5353
5326 5321 5317 5310 5305 5300 5294 5291 5289 5285 5284 5283 5283 5281 5281 5282 5282 5281 5282 5283 5284 5284 5285 5287 5289 5290 5292 5296 5301 5302 5304 5305 5308 5311 5314 5317 5320 5323 5326 5329 5332 5334 5337 5338
5322 5314 5306 5300 5293 5286 5280 5275 5272 5268 5265 5263 5262 5262 5263 5264 5264 5265 5265 5267 5269 5270 5271 5273 5275 5275 5278 5282 5285 5287 5290 5291 5294 5296 5299 5302 5306 5308 5312 5315 5318 5321 5323 5324
5314 5305 5296 5288 5281 5273 5266 5260 5255 5251 5247 5244 5242 5240 5240 5241 5243 5244 5246 5248 5251 5253 5254 5257 5259 5260 5263 5266 5269 5271 5274 5276 5278 5282 5284 5288 5291 5294 5297 5300 5303 5307 5310 5309
5305 5297 5286 5275 5264 5257 5249 5243 5237 5232 5229 5225 5223 5221 5219 5219 5220 5221 5223 5225 5229 5232 5235 5239 5242 5243 5247 5251 5255 5257 5260 5262 5264 5268 5270 5272 5276 5278 5281 5285 5287 5290 5292 5294
5294 5281 5269 5257 5248 5241 5233 5225 5219 5214 5210 5206 5204 5201 5200 5199 5200 5200 5202 5204 5206 5209 5212 5217 5220 5224 5231 5233 5236 5239 5242 5245 5249 5252 5256 5257 5260 5263 5266 5269 5271 5273 5274 5277
5287 5273 5260 5248 5236 5226 5218 5210 5203 5197 5191 5187 5186 5184 5182 5181 5180 5181 5182 5183 5185 5189 5190 5194 5199 5204 5206 5210 5214 5219 5224 5228 5231 5234 5239 5241 5244 5248 5250 5253 5255 5257 5259 5261
5281 5266 5252 5239 5226 5214 5204 5195 5188 5182 5176 5171 5167 5164 5163 5164 5164 5165 5165 5166 5167 5170 5172 5175 5178 5182 5185 5186 5191 5199 5204 5208 5212 5216 5219 5223 5227 5230 5233 5236 5239 5241 5242 5245
5274 5258 5243 5230 5217 5204 5194 5185 5177 5170 5164 5158 5153 5150 5148 5148 5147 5148 5151 5151 5152 5155 5158 5159 5161 5163 5165 5169 5176 5180 5184 5187 5190 5194 5198 5202 5206 5211 5214 5216 5220 5224 5226 5228
5269 5253 5238 5223 5210 5198 5188 5179 5170 5162 5154 5148 5143 5139 5137 5135 5134 5135 5138 5140 5139 5143 5145 5145 5147 5150 5151 5157 5159 5162 5165 5167 5170 5173 5176 5180 5185 5189 5195 5198 5201 5204 5208 5210
5266 5250 5235 5222 5208 5196 5185 5175 5166 5158 5151 5144 5138 5133 5130 5128 5127 5128 5128 5131 5132 5134 5134 5135 5137 5138 5142 5143 5145 5147 5150 5153 5155 5158 5161 5165 5169 5173 5177 5180 5184 5187 5190 5192
5268 5252 5239 5223 5207 5196 5185 5174 5165 5157 5150 5143 5137 5133 5129 5125 5124 5124 5124 5124 5126 5127 5128 5128 5129 5130 5131 5133 5135 5136 5138 5140 5143 5144 5148 5151 5155 5158 5162 5165 5169 5172 5175 5178
5272 5259 5242 5226 5211 5197 5187 5178 5168 5159 5152 5145 5139 5134 5130 5127 5125 5123 5122 5122 5122 5122 5122 5122 5123 5124 5124 5125 5126 5127 5128 5130 5132 5135 5137 5139 5142 5145 5149 5153 5156 5159 5162 5164
5280 5263 5246 5231 5216 5206 5194 5183 5173 5164 5156 5150 5144 5139 5135 5131 5128 5125 5123 5122 5121 5121 5120 5120 5119 5119 5119 5119 5119 5120 5120 5122 5124 5126 5127 5129 5132 5134 5138 5142 5146 5150 5152 5154
5285 5270 5257 5241 5229 5216 5203 5190 5180 5173 5165 5157 5152 5146 5141 5137 5134 5131 5129 5126 5124 5123 5121 5120 5118 5117 5117 5116 5116 5116 5116 5117 5118 5119 5120 5123 5125 5127 5129 5134 5138 5142 5145 5147